This is the latest recevied weather packets stored in our database for station/object DB0LS-15. If no packets are shown the sender has not sent any weather packets the latest 1 day(s).
| Time | Temp. | Humidity | Pressure | Rain* | Wind** | Luminosity | Snow |
|---|---|---|---|---|---|---|---|
| 1778003164 | 16.67° C | 82% | 988.5 hPa | 0 mm | 1.79 m/s, 33° | - | - |
| 1778002560 | 16.67° C | 82% | 988.4 hPa | 0 mm | 1.79 m/s, 34° | - | - |
| 1778001956 | 16.67° C | 82% | 988.4 hPa | 0 mm | 1.34 m/s, 30° | - | - |
| 1778001353 | 17.22° C | 82% | 988.5 hPa | 0 mm | 1.79 m/s, 25° | - | - |
| 1778000749 | 17.22° C | 83% | 988.5 hPa | 0 mm | 1.79 m/s, 46° | - | - |
| 1778000145 | 17.22° C | 84% | 988.6 hPa | 0 mm | 1.79 m/s, 38° | - | - |
| 1777999541 | 17.22° C | 83% | 988.5 hPa | 0 mm | 1.34 m/s, 31° | - | - |
| 1777998937 | 17.78° C | 83% | 988.6 hPa | 0 mm | 1.79 m/s, 44° | - | - |
| 1777998333 | 17.78° C | 82% | 988.9 hPa | 0 mm | 1.79 m/s, 42° | - | - |
| 1777997730 | 17.78° C | 81% | 988.9 hPa | 0 mm | 1.34 m/s, 34° | - | - |
| 1777997126 | 17.78° C | 80% | 988.9 hPa | 0 mm | 2.68 m/s, 57° | - | - |
| 1777996522 | 17.78° C | 81% | 989 hPa | 0 mm | 1.79 m/s, 46° | - | - |
| 1777995918 | 18.33° C | 81% | 989.1 hPa | 0 mm | 1.34 m/s, 74° | - | - |
| 1777995375 | 17.78° C | 81% | 989.2 hPa | 0 mm | 2.24 m/s, 50° | - | - |
| 1777994773 | 17.78° C | 82% | 989.2 hPa | 0 mm | 1.79 m/s, 37° | - | - |
| 1777994167 | 17.22° C | 84% | 989.3 hPa | 0 mm | 0.89 m/s, 72° | - | - |
| 1777993563 | 17.22° C | 83% | 989.4 hPa | 0 mm | 1.79 m/s, 35° | - | - |
| 1777992959 | 17.22° C | 82% | 989.4 hPa | 0 mm | 1.79 m/s, 33° | - | - |
| 1777992355 | 17.22° C | 82% | 989.4 hPa | 0 mm | 1.79 m/s, 38° | - | - |
| 1777991752 | 17.22° C | 83% | 989.6 hPa | 0 mm | 1.34 m/s, 41° | - | - |
| 1777991148 | 17.22° C | 83% | 989.6 hPa | 0 mm | 0.89 m/s, 37° | - | - |
| 1777990544 | 17.22° C | 83% | 989.7 hPa | 0 mm | 1.79 m/s, 42° | - | - |
| 1777989940 | 17.22° C | 84% | 989.8 hPa | 0 mm | 1.79 m/s, 32° | - | - |
| 1777989336 | 16.67° C | 85% | 990 hPa | 0 mm | 1.34 m/s, 31° | - | - |
| 1777988733 | 16.67° C | 86% | 989.8 hPa | 0 mm | 1.79 m/s, 38° | - | - |
* Rain latest hour (hover to see other rain measurements)
** Current wind speed in m/s (hover to see current wind gust speed)